Location: Stoke Bliss
(52.2667°N, 2.5167°W)
Time: 21:26:41
(UTC+00:00)

Cosmos 2322 Rocket - Pass Details

Date: 03 March 2021
Orbit: 832 x 852 km, 71.0° (Epoch: 15 April)

Event Time Altitude Azimuth Distance (km) Brightness Sun altitude
Rises 20:52:24 0° 249° (WSW) 3,374 5.9 -27.4°
Reaches altitude 10° 20:55:11 10° 261° (W) 2,444 5.2 -27.8°
Maximum altitude 20:59:58 28° 320° (NW) 1,523 4.1 -28.4°
Drops below altitude 10° 21:04:48 10° 19° (NNE) 2,462 4.7 -29.1°
Sets 21:07:37 0° 31° (NNE) 3,403 5.4 -29.4°
